Location: Bishop�s Knoyle
(51.0728°N, 2.1714°W)
Time: 22:39:44
(UTC+00:00)

Okean 1 Rocket - Pass Details

Date: 18 September 2020
Orbit: 605 x 636 km, 82.5° (Epoch: 31 October)

Event Time Altitude Azimuth Distance (km) Brightness Sun altitude
Exits shadow 19:51:20 27° 116° (ESE) 1,223 4.0 -15.5°
Maximum altitude 19:52:25 31° 89° (E) 1,132 3.9 -15.7°
Drops below altitude 10° 19:56:22 10° 28° (NNE) 2,035 5.7 -16.2°
Sets 19:58:49 0° 19° (NNE) 2,949 6.6 -16.6°
